Time,TemperatureF,DewpointF,PressureIn,WindDirection,WindDirectionDegrees,WindSpeedMPH,WindSpeedGustMPH,Humidity,HourlyPrecipIn,Conditions,Clouds,dailyrainin,SolarRadiationWatts/m^2,SoftwareType,DateUTC
2013-11-27 00:01:00,30.0,28.0,-100.00,South,174,1.0,5.0,94,0.00,,,0.00,0.000000,,2013-11-27 05:01:00,
2013-11-27 00:23:00,30.0,28.0,-100.00,South,174,1.0,5.0,94,0.00,,,0.00,0.000000,,2013-11-27 05:23:00,
2013-11-27 00:33:00,30.0,28.0,-100.00,South,174,1.0,5.0,94,0.00,,,0.00,0.000000,,2013-11-27 05:33:00,
2013-11-27 00:42:00,30.0,28.0,-100.00,South,174,1.0,5.0,94,0.00,,,0.00,0.000000,,2013-11-27 05:42:00,
2013-11-27 00:53:00,30.0,28.0,-100.00,South,174,1.0,5.0,94,0.00,,,0.00,0.000000,,2013-11-27 05:53:00,
2013-11-27 01:01:00,33.0,32.0,-100.00,NNW,337,2.0,6.0,95,0.00,,,0.00,0.000000,,2013-11-27 06:01:00,
2013-11-27 01:22:00,33.0,32.0,-100.00,NNW,337,2.0,6.0,95,0.00,,,0.00,0.000000,,2013-11-27 06:22:00,
2013-11-27 01:32:00,33.0,32.0,-100.00,NNW,337,2.0,6.0,95,0.00,,,0.00,0.000000,,2013-11-27 06:32:00,
2013-11-27 01:42:00,33.0,32.0,-100.00,NNW,337,2.0,6.0,95,0.00,,,0.00,0.000000,,2013-11-27 06:42:00,
2013-11-27 01:52:00,33.0,32.0,-100.00,NNW,337,2.0,6.0,95,0.00,,,0.00,0.000000,,2013-11-27 06:52:00,
2013-11-27 02:01:00,35.0,32.0,-100.00,East,79,3.0,12.0,89,0.00,,,0.00,0.000000,,2013-11-27 07:01:00,
2013-11-27 02:42:00,35.0,32.0,-100.00,East,79,3.0,12.0,89,0.00,,,0.00,0.000000,,2013-11-27 07:42:00,
2013-11-27 02:53:00,35.0,32.0,-100.00,East,79,3.0,12.0,89,0.00,,,0.00,0.000000,,2013-11-27 07:53:00,
2013-11-27 03:01:00,35.0,33.0,-100.00,NE,56,7.0,13.0,92,0.13,,,0.13,0.000000,,2013-11-27 08:01:00,
2013-11-27 03:22:00,35.0,33.0,-100.00,NE,56,7.0,13.0,92,0.13,,,0.13,0.000000,,2013-11-27 08:22:00,
2013-11-27 03:32:00,35.0,33.0,-100.00,NE,56,7.0,13.0,92,0.13,,,0.13,0.000000,,2013-11-27 08:32:00,
2013-11-27 03:43:00,35.0,33.0,-100.00,NE,56,7.0,13.0,92,0.13,,,0.13,0.000000,,2013-11-27 08:43:00,
2013-11-27 03:53:00,35.0,33.0,-100.00,NE,56,7.0,13.0,92,0.13,,,0.13,0.000000,,2013-11-27 08:53:00,
2013-11-27 04:01:00,35.0,33.0,-100.00,NE,45,4.0,15.0,94,0.26,,,-99.99,0.000000,,2013-11-27 09:01:00,
2013-11-27 04:22:00,35.0,33.0,-100.00,NE,45,4.0,15.0,94,0.26,,,-99.99,0.000000,,2013-11-27 09:22:00,
2013-11-27 04:33:00,35.0,33.0,-100.00,NE,45,4.0,15.0,94,0.26,,,-99.99,0.000000,,2013-11-27 09:33:00,
2013-11-27 04:43:00,35.0,33.0,-100.00,NE,45,4.0,15.0,94,0.26,,,-99.99,0.000000,,2013-11-27 09:43:00,
2013-11-27 04:54:00,35.0,33.0,-100.00,NE,45,4.0,15.0,94,0.26,,,-99.99,0.000000,,2013-11-27 09:54:00,
2013-11-27 05:01:00,36.0,33.0,-100.00,NE,50,7.0,24.0,88,0.33,,,0.72,0.000000,,2013-11-27 10:01:00,
2013-11-27 05:23:00,36.0,33.0,-100.00,NE,50,7.0,24.0,88,0.33,,,0.72,0.000000,,2013-11-27 10:23:00,
2013-11-27 05:33:00,36.0,33.0,-100.00,NE,50,7.0,24.0,88,0.33,,,0.72,0.000000,,2013-11-27 10:33:00,
2013-11-27 05:42:00,36.0,33.0,-100.00,NE,50,7.0,24.0,88,0.33,,,0.72,0.000000,,2013-11-27 10:42:00,
2013-11-27 05:53:00,36.0,33.0,-100.00,NE,50,7.0,24.0,88,0.33,,,0.72,0.000000,,2013-11-27 10:53:00,
2013-11-27 06:01:00,34.0,32.0,-100.00,North,352,4.0,13.0,93,0.13,,,0.85,0.000000,,2013-11-27 11:01:00,
2013-11-27 06:42:00,34.0,32.0,-100.00,North,352,4.0,13.0,93,0.13,,,0.85,0.000000,,2013-11-27 11:42:00,
2013-11-27 06:53:00,34.0,32.0,-100.00,North,352,4.0,13.0,93,0.13,,,0.85,0.000000,,2013-11-27 11:53:00,
2013-11-27 07:01:00,32.0,31.0,-100.00,ENE,58,0.0,8.0,95,0.14,,,0.99,0.000000,,2013-11-27 12:01:00,
2013-11-27 07:22:00,32.0,31.0,-100.00,ENE,58,0.0,8.0,95,0.14,,,0.99,0.000000,,2013-11-27 12:22:00,
2013-11-27 07:32:00,32.0,31.0,-100.00,ENE,58,0.0,8.0,95,0.14,,,0.99,0.000000,,2013-11-27 12:32:00,
2013-11-27 07:42:00,32.0,31.0,-100.00,ENE,58,0.0,8.0,95,0.14,,,0.99,0.000000,,2013-11-27 12:42:00,
2013-11-27 07:52:00,32.0,31.0,-100.00,ENE,58,0.0,8.0,95,0.14,,,0.99,0.000000,,2013-11-27 12:52:00,
2013-11-27 08:01:00,32.0,30.0,-100.00,ENE,69,5.0,9.0,94,0.05,,,1.04,4.000000,,2013-11-27 13:01:00,
2013-11-27 08:22:00,32.0,30.0,-100.00,ENE,69,5.0,9.0,94,0.05,,,1.04,4.000000,,2013-11-27 13:22:00,
2013-11-27 08:32:00,32.0,30.0,-100.00,ENE,69,5.0,9.0,94,0.05,,,1.04,4.000000,,2013-11-27 13:32:00,
2013-11-27 08:42:00,32.0,30.0,-100.00,ENE,69,5.0,9.0,94,0.05,,,1.04,4.000000,,2013-11-27 13:42:00,
2013-11-27 08:52:00,32.0,30.0,-100.00,ENE,69,5.0,9.0,94,0.05,,,1.04,4.000000,,2013-11-27 13:52:00,
2013-11-27 09:01:00,33.0,31.0,-100.00,ENE,66,6.0,12.0,92,0.03,,,1.07,23.000000,,2013-11-27 14:01:00,
2013-11-27 09:22:00,33.0,31.0,-100.00,ENE,66,6.0,12.0,92,0.03,,,1.07,23.000000,,2013-11-27 14:22:00,
2013-11-27 09:32:00,33.0,31.0,-100.00,ENE,66,6.0,12.0,92,0.03,,,1.07,23.000000,,2013-11-27 14:32:00,
2013-11-27 09:42:00,33.0,31.0,-100.00,ENE,66,6.0,12.0,92,0.03,,,1.07,23.000000,,2013-11-27 14:42:00,
2013-11-27 09:53:00,33.0,31.0,-100.00,ENE,66,6.0,12.0,92,0.03,,,1.07,23.000000,,2013-11-27 14:53:00,
2013-11-27 10:01:00,33.0,31.0,-100.00,West,264,3.0,8.0,94,0.05,,,1.12,31.000000,,2013-11-27 15:01:00,
2013-11-27 10:22:00,33.0,31.0,-100.00,West,264,3.0,8.0,94,0.05,,,1.12,31.000000,,2013-11-27 15:22:00,
2013-11-27 10:33:00,33.0,31.0,-100.00,West,264,3.0,8.0,94,0.05,,,1.12,31.000000,,2013-11-27 15:33:00,
2013-11-27 10:44:00,33.0,31.0,-100.00,West,264,3.0,8.0,94,0.05,,,1.12,31.000000,,2013-11-27 15:44:00,
2013-11-27 10:53:00,33.0,31.0,-100.00,West,264,3.0,8.0,94,0.05,,,1.12,31.000000,,2013-11-27 15:53:00,
2013-11-27 11:01:00,32.0,30.0,-100.00,West,274,5.0,12.0,94,0.00,,,1.12,35.000000,,2013-11-27 16:01:00,
2013-11-27 11:24:00,32.0,30.0,-100.00,West,274,5.0,12.0,94,0.00,,,1.12,35.000000,,2013-11-27 16:24:00,
2013-11-27 11:33:00,32.0,30.0,-100.00,West,274,5.0,12.0,94,0.00,,,1.12,35.000000,,2013-11-27 16:33:00,
2013-11-27 11:43:00,32.0,30.0,-100.00,West,274,5.0,12.0,94,0.00,,,1.12,35.000000,,2013-11-27 16:43:00,
2013-11-27 11:53:00,32.0,30.0,-100.00,West,274,5.0,12.0,94,0.00,,,1.12,35.000000,,2013-11-27 16:53:00,
2013-11-27 12:01:00,32.0,31.0,-100.00,WNW,283,7.0,15.0,95,0.01,,,1.13,55.000000,,2013-11-27 17:01:00,
2013-11-27 12:22:00,32.0,31.0,-100.00,WNW,283,7.0,15.0,95,0.01,,,1.13,55.000000,,2013-11-27 17:22:00,
2013-11-27 12:33:00,32.0,31.0,-100.00,WNW,283,7.0,15.0,95,0.01,,,1.13,55.000000,,2013-11-27 17:33:00,
2013-11-27 12:42:00,32.0,31.0,-100.00,WNW,283,7.0,15.0,95,0.01,,,1.13,55.000000,,2013-11-27 17:42:00,
2013-11-27 12:52:00,32.0,31.0,-100.00,WNW,283,7.0,15.0,95,0.01,,,1.13,55.000000,,2013-11-27 17:52:00,
2013-11-27 13:01:00,31.0,30.0,-100.00,WNW,284,5.0,16.0,95,0.00,,,1.13,59.000000,,2013-11-27 18:01:00,
2013-11-27 13:22:00,31.0,30.0,-100.00,WNW,284,5.0,16.0,95,0.00,,,1.13,59.000000,,2013-11-27 18:22:00,
2013-11-27 13:32:00,31.0,30.0,-100.00,WNW,284,5.0,16.0,95,0.00,,,1.13,59.000000,,2013-11-27 18:32:00,
2013-11-27 13:43:00,31.0,30.0,-100.00,WNW,284,5.0,16.0,95,0.00,,,1.13,59.000000,,2013-11-27 18:43:00,
2013-11-27 13:52:00,31.0,30.0,-100.00,WNW,284,5.0,16.0,95,0.00,,,1.13,59.000000,,2013-11-27 18:52:00,
2013-11-27 14:01:00,30.0,28.0,-100.00,West,271,8.0,17.0,94,0.00,,,1.13,33.000000,,2013-11-27 19:01:00,
2013-11-27 14:22:00,30.0,28.0,-100.00,West,271,8.0,17.0,94,0.00,,,1.13,33.000000,,2013-11-27 19:22:00,
2013-11-27 14:32:00,30.0,28.0,-100.00,West,271,8.0,17.0,94,0.00,,,1.13,33.000000,,2013-11-27 19:32:00,
2013-11-27 14:42:00,30.0,28.0,-100.00,West,271,8.0,17.0,94,0.00,,,1.13,33.000000,,2013-11-27 19:42:00,
2013-11-27 14:52:00,30.0,28.0,-100.00,West,271,8.0,17.0,94,0.00,,,1.13,33.000000,,2013-11-27 19:52:00,
2013-11-27 15:01:00,29.0,27.0,-100.00,West,273,6.0,14.0,94,0.00,,,1.13,15.000000,,2013-11-27 20:01:00,
2013-11-27 15:22:00,29.0,27.0,-100.00,West,273,6.0,14.0,94,0.00,,,1.13,15.000000,,2013-11-27 20:22:00,
2013-11-27 15:32:00,29.0,27.0,-100.00,West,273,6.0,14.0,94,0.00,,,1.13,15.000000,,2013-11-27 20:32:00,
2013-11-27 15:42:00,29.0,27.0,-100.00,West,273,6.0,14.0,94,0.00,,,1.13,15.000000,,2013-11-27 20:42:00,
2013-11-27 15:53:00,29.0,27.0,-100.00,West,273,6.0,14.0,94,0.00,,,1.13,15.000000,,2013-11-27 20:53:00,
2013-11-27 16:01:00,28.0,26.0,-100.00,West,271,6.0,18.0,93,0.00,,,1.13,7.000000,,2013-11-27 21:01:00,
2013-11-27 16:22:00,28.0,26.0,-100.00,West,271,6.0,18.0,93,0.00,,,1.13,7.000000,,2013-11-27 21:22:00,
2013-11-27 16:33:00,28.0,26.0,-100.00,West,271,6.0,18.0,93,0.00,,,1.13,7.000000,,2013-11-27 21:33:00,
2013-11-27 16:43:00,28.0,26.0,-100.00,West,271,6.0,18.0,93,0.00,,,1.13,7.000000,,2013-11-27 21:43:00,
2013-11-27 16:53:00,28.0,26.0,-100.00,West,271,6.0,18.0,93,0.00,,,1.13,7.000000,,2013-11-27 21:53:00,
2013-11-27 17:01:00,27.0,25.0,-100.00,West,273,7.0,14.0,92,0.00,,,1.13,1.000000,,2013-11-27 22:01:00,
2013-11-27 17:23:00,27.0,25.0,-100.00,West,273,7.0,14.0,92,0.00,,,1.13,1.000000,,2013-11-27 22:23:00,
2013-11-27 17:33:00,27.0,25.0,-100.00,West,273,7.0,14.0,92,0.00,,,1.13,1.000000,,2013-11-27 22:33:00,
2013-11-27 17:43:00,27.0,25.0,-100.00,West,273,7.0,14.0,92,0.00,,,1.13,1.000000,,2013-11-27 22:43:00,
2013-11-27 17:52:00,27.0,25.0,-100.00,West,273,7.0,14.0,92,0.00,,,1.13,1.000000,,2013-11-27 22:52:00,
2013-11-27 18:01:00,27.0,25.0,-100.00,West,268,7.0,15.0,92,0.00,,,1.13,0.000000,,2013-11-27 23:01:00,
2013-11-27 18:22:00,27.0,25.0,-100.00,West,268,7.0,15.0,92,0.00,,,1.13,0.000000,,2013-11-27 23:22:00,
2013-11-27 18:33:00,27.0,25.0,-100.00,West,268,7.0,15.0,92,0.00,,,1.13,0.000000,,2013-11-27 23:33:00,
2013-11-27 18:43:00,27.0,25.0,-100.00,West,268,7.0,15.0,92,0.00,,,1.13,0.000000,,2013-11-27 23:43:00,
2013-11-27 18:53:00,27.0,25.0,-100.00,West,268,7.0,15.0,92,0.00,,,1.13,0.000000,,2013-11-27 23:53:00,
2013-11-27 19:01:00,27.0,25.0,-100.00,West,269,6.0,16.0,92,0.00,,,1.13,0.000000,,2013-11-28 00:01:00,
2013-11-27 19:22:00,27.0,25.0,-100.00,West,269,6.0,16.0,92,0.00,,,1.13,0.000000,,2013-11-28 00:22:00,
2013-11-27 19:32:00,27.0,25.0,-100.00,West,269,6.0,16.0,92,0.00,,,1.13,0.000000,,2013-11-28 00:32:00,
2013-11-27 19:42:00,27.0,25.0,-100.00,West,269,6.0,16.0,92,0.00,,,1.13,0.000000,,2013-11-28 00:42:00,
2013-11-27 19:52:00,27.0,25.0,-100.00,West,269,6.0,16.0,92,0.00,,,1.13,0.000000,,2013-11-28 00:52:00,
2013-11-27 20:01:00,26.0,23.0,-100.00,West,273,10.0,20.0,90,0.00,,,1.13,0.000000,,2013-11-28 01:01:00,
2013-11-27 20:22:00,26.0,23.0,-100.00,West,273,10.0,20.0,90,0.00,,,1.13,0.000000,,2013-11-28 01:22:00,
2013-11-27 20:32:00,26.0,23.0,-100.00,West,273,10.0,20.0,90,0.00,,,1.13,0.000000,,2013-11-28 01:32:00,
2013-11-27 20:42:00,26.0,23.0,-100.00,West,273,10.0,20.0,90,0.00,,,1.13,0.000000,,2013-11-28 01:42:00,
2013-11-27 20:52:00,26.0,23.0,-100.00,West,273,10.0,20.0,90,0.00,,,1.13,0.000000,,2013-11-28 01:52:00,
2013-11-27 21:01:00,24.0,21.0,-100.00,West,280,11.0,21.0,87,0.00,,,1.13,0.000000,,2013-11-28 02:01:00,
2013-11-27 21:22:00,24.0,21.0,-100.00,West,280,11.0,21.0,87,0.00,,,1.13,0.000000,,2013-11-28 02:22:00,
2013-11-27 21:32:00,24.0,21.0,-100.00,West,280,11.0,21.0,87,0.00,,,1.13,0.000000,,2013-11-28 02:32:00,
2013-11-27 21:42:00,24.0,21.0,-100.00,West,280,11.0,21.0,87,0.00,,,1.13,0.000000,,2013-11-28 02:42:00,
2013-11-27 21:52:00,24.0,21.0,-100.00,West,280,11.0,21.0,87,0.00,,,1.13,0.000000,,2013-11-28 02:52:00,
2013-11-27 22:01:00,23.0,20.0,-100.00,West,279,8.0,17.0,89,0.00,,,1.13,0.000000,,2013-11-28 03:01:00,
2013-11-27 22:22:00,23.0,20.0,-100.00,West,279,8.0,17.0,89,0.00,,,1.13,0.000000,,2013-11-28 03:22:00,
2013-11-27 22:33:00,23.0,20.0,-100.00,West,279,8.0,17.0,89,0.00,,,1.13,0.000000,,2013-11-28 03:33:00,
2013-11-27 22:44:00,23.0,20.0,-100.00,West,279,8.0,17.0,89,0.00,,,1.13,0.000000,,2013-11-28 03:44:00,
2013-11-27 22:53:00,23.0,20.0,-100.00,West,279,8.0,17.0,89,0.00,,,1.13,0.000000,,2013-11-28 03:53:00,
2013-11-27 23:01:00,20.0,18.0,-100.00,WNW,288,10.0,22.0,90,0.00,,,1.13,0.000000,,2013-11-28 04:01:00,
2013-11-27 23:23:00,20.0,18.0,-100.00,WNW,288,10.0,22.0,90,0.00,,,1.13,0.000000,,2013-11-28 04:23:00,
2013-11-27 23:33:00,20.0,18.0,-100.00,WNW,288,10.0,22.0,90,0.00,,,1.13,0.000000,,2013-11-28 04:33:00,
2013-11-27 23:43:00,20.0,18.0,-100.00,WNW,288,10.0,22.0,90,0.00,,,1.13,0.000000,,2013-11-28 04:43:00,
2013-11-27 23:52:00,20.0,18.0,-100.00,WNW,288,10.0,22.0,90,0.00,,,1.13,0.000000,,2013-11-28 04:52:00,